Flag for Kuwait Weather past 2 weeks in Kuwait City, Kuwait

Now
63 °F

Clear.


Feels Like: 63 °F
Forecast: 46 / 67 °F
Wind: 5 mph from North

Location: Kuwait International Airport

Current Time: Dec 18, 2014 at 7:22:46 PM

Latest Report: Dec 18, 2014 at 6:00 PM


Visibility: 10 mi

Pressure: 30.21 "Hg

Humidity: 45%

Dew point: 41 °F

Location of Kuwait CityLocation

Historic Weather in Kuwait City — Graph

°F

Kuwait City temperature yesterday

Maximum temperature yesterday: 66 °F (at 2:00 PM)
Minimum temperature yesterday: 55 °F (at 9:00 AM)
Average temperature yesterday: 60 °F

Past Weeks' High & Low Weather Summary

 TemperatureHumidityPressure
High79 °F (Dec 8, 1:00 PM)100% (Dec 9, 7:00 AM)30.30 "Hg (Dec 9, 7:00 AM)
Low43 °F (Dec 13, 6:00 AM)21% (Dec 13, 1:00 PM)30.04 "Hg (Dec 15, 12:00 AM)
Average62 °F67%30.14 "Hg
* Reported Dec 3 6:00 PM — Dec 18 6:00 PM, Kuwait City, Weather by CustomWeather, © 2014

Note: Actual official high and low records may vary slightly from our data, if they occured in-between our weather recording intervals... More about our weather records

Advertising

Kuwait City weather history for previous 24 hours

 ConditionsComfort  
Time TempWeatherWind HumidityBarometerVisibility
6:00 PM
Dec 18
63 °FClear.5 mph45%30.21 "Hg10 mi
5:00 PM64 °FClear.6 mph43%30.18 "Hg10 mi
4:00 PM66 °FSunny.7 mph40%30.18 "Hg10 mi
3:00 PM68 °FSunny.9 mph40%30.18 "Hg10 mi
2:00 PM68 °FSunny.10 mph40%30.18 "Hg10 mi
1:00 PM66 °FSunny.9 mph49%30.24 "Hg10 mi
12:00 PM64 °FClear.9 mph56%30.24 "Hg4 mi
11:00 AM63 °FHaze.9 mph64%30.27 "Hg3 mi
10:00 AM59 °FHaze.7 mph68%30.30 "Hg3 mi
9:00 AM55 °FHaze.6 mph72%30.27 "Hg3 mi
8:00 AM50 °FFog.6 mph88%30.27 "Hg2 mi
7:00 AM46 °FFog.6 mph93%30.27 "Hg1 mi
6:00 AM46 °FFog.No wind93%30.24 "Hg2 mi
5:00 AM48 °FFog.3 mph94%30.24 "Hg2 mi
4:00 AM48 °FFog.6 mph94%30.24 "Hg2 mi
3:00 AM46 °FFog.6 mph93%30.24 "Hg2 mi
2:00 AM46 °FFog.5 mph93%30.24 "Hg2 mi
1:00 AM46 °FFog.6 mph93%30.24 "Hg3 mi
12:00 AM50 °FClear.6 mph88%30.24 "Hg4 mi
11:00 PM
Dec 17
55 °FClear.8 mph82%30.24 "Hg4 mi
10:00 PM57 °FClear.7 mph77%30.24 "Hg4 mi
9:00 PM57 °FClear.8 mph72%30.27 "Hg10 mi
8:00 PM59 °FClear.8 mph68%30.24 "Hg10 mi
7:00 PM59 °FClear.8 mph63%30.24 "Hg10 mi
Weather by CustomWeather, © 2014

See weather overviewHow to use our weather pages